Change the Weather History Date:

Saturday, August 30, 2014

  Actual Average Record
Temperature  
Mean Temperature 77 °F 83 °F  
Max Temperature 79 °F 92 °F 104 °F (2000)
Min Temperature 74 °F 74 °F 59 °F (1906)
Cooling Degree Days 12 18  
Month to date cooling degree days 537 562  
Year to date cooling degree days 2039 2246  
Since 1 June cooling degree days 1570 1632  
Growing Degree Days 26 (Base 50)    
Moisture  
Dew Point 74 °F    
Average Humidity 94    
Maximum Humidity 100    
Minimum Humidity 87    
Precipitation  
Precipitation 1.19 in 0.15 in 1.40 in (1974)
Month to date precipitation 8.48 4.47  
Year to date precipitation 46.09 40.47  
Sea Level Pressure  
Sea Level Pressure 30.00 in    
Wind  
Wind Speed 5 mph (South)    
Max Wind Speed 28 mph    
Max Gust Speed 36 mph    
Visibility 7 miles    
Events Fog , Rain , Thunderstorm    
T = Trace of Precipitation, MM = Missing Value Source: NWS Daily Summary

Daily Weather History Graph

Daily Weather History Graph

Search for Another Location

Airport or City:

Trip Planner

Search our weather history database for the weather conditions in past years. The results will help you decide how hot, cold, wet, or windy it might be!

Date:

Astronomy

Aug. 30, 2014 Rise Set
Actual Time 6:43 AM CDT 7:32 PM CDT
Civil Twilight 6:19 AM CDT 7:57 PM CDT
Nautical Twilight 5:50 AM CDT 8:26 PM CDT
Astronomical Twilight 5:20 AM CDT 8:55 PM CDT
Moon 11:08 AM CDT (8/30) 10:31 PM CDT (8/30)
Length of Visible Light 13h 38m
Length of Day
12h 49m
Waxing Crescent, 23% of the Moon is Illuminated
Aug 30
Waxing Crescent
Sep 2
First Quarter
Sep 8
Full
Sep 15
Last Quarter
Sep 24
New

Hourly Weather History & Observations

Time (CDT) Temp. Dew Point Humidity Pressure Visibility Wind Dir Wind Speed Gust Speed Precip Events Conditions
12:53 AM 75.9 °F 75.0 °F 97% 29.98 in 10.0 mi SSE 3.5 mph - 0.01 in Rain Light Rain
1:53 AM 75.0 °F 75.0 °F 100% 29.96 in 10.0 mi SE 4.6 mph - 0.00 in   Clear
2:53 AM 75.0 °F 73.0 °F 94% 29.97 in 10.0 mi Variable 3.5 mph - N/A   Scattered Clouds
3:29 AM 75.0 °F 73.9 °F 96% 29.97 in 10.0 mi Variable 3.5 mph - N/A   Overcast
3:53 AM 75.0 °F 73.0 °F 94% 29.97 in 10.0 mi ESE 3.5 mph - N/A   Scattered Clouds
4:53 AM 75.9 °F 73.9 °F 94% 29.95 in 10.0 mi Calm Calm - 0.00 in   Partly Cloudy
5:53 AM 75.9 °F 73.0 °F 91% 29.93 in 10.0 mi ESE 5.8 mph - N/A   Partly Cloudy
6:53 AM 77.0 °F 75.0 °F 94% 29.94 in 10.0 mi ESE 6.9 mph - N/A   Clear
7:10 AM 77.0 °F 75.0 °F 94% 29.96 in 2.5 mi SSE 13.8 mph 18.4 mph 0.03 in Rain Rain
7:21 AM 78.1 °F 75.0 °F 90% 29.96 in 3.0 mi South 12.7 mph 23.0 mph 0.06 in Rain Rain
7:53 AM 75.9 °F 75.0 °F 97% 29.95 in 10.0 mi Variable 4.6 mph - 0.07 in   Scattered Clouds
8:32 AM 77.0 °F 75.9 °F 96% 30.01 in 0.5 mi South 16.1 mph 26.5 mph 0.10 in Fog , Rain Heavy Rain
8:42 AM 75.0 °F - N/A% 29.99 in 0.5 mi SSW 11.5 mph 23.0 mph 0.20 in Rain , Thunderstorm Heavy Thunderstorms and Rain
8:53 AM 73.9 °F - N/A% 30.00 in 0.5 mi South 5.8 mph - 0.23 in Rain , Thunderstorm Heavy Thunderstorms and Rain
8:57 AM 73.9 °F - N/A% 30.00 in 2.5 mi South 6.9 mph - 0.03 in Rain , Thunderstorm Heavy Rain
9:05 AM 73.9 °F - N/A% 30.00 in 1.2 mi South 4.6 mph - 0.08 in Rain , Thunderstorm Heavy Rain
9:09 AM 73.9 °F - N/A% 29.99 in 2.0 mi Calm Calm - 0.09 in Rain Heavy Rain
9:20 AM 73.9 °F - N/A% 29.99 in 4.0 mi East 3.5 mph - 0.11 in Rain Heavy Rain
9:38 AM 75.0 °F - N/A% 30.01 in 6.0 mi SSE 4.6 mph - 0.13 in Rain Heavy Rain
9:49 AM 75.2 °F - N/A% 30.02 in 4.0 mi SSE 6.9 mph - 0.15 in Rain , Thunderstorm Heavy Rain
9:50 AM 75.2 °F - N/A% 30.02 in 4.0 mi SSE 9.2 mph - N/A Rain , Thunderstorm Rain
10:00 AM 75.0 °F - N/A% 30.02 in 5.0 mi SSE 6.9 mph - 0.02 in Rain , Thunderstorm Rain
10:10 AM 75.0 °F - N/A% 30.01 in 6.0 mi SE 8.1 mph - 0.03 in Rain Rain
10:53 AM 77.0 °F - N/A% 30.01 in 10.0 mi South 9.2 mph - 0.05 in   Overcast
11:53 AM 79.0 °F 79.0 °F 100% 30.01 in 10.0 mi Calm Calm - 0.00 in Rain Light Rain
11:57 AM 78.1 °F 78.1 °F 100% 30.03 in 1.2 mi North - - 0.15 in Rain Heavy Rain
11:59 AM 77.0 °F 75.9 °F 96% 30.02 in 0.8 mi SSW 18.4 mph 26.5 mph 0.20 in Rain Heavy Rain
12:04 PM 75.0 °F 73.9 °F 96% 30.03 in 0.5 mi SSW 23.0 mph 36.8 mph 0.35 in Fog , Rain Heavy Rain
12:19 PM 75.0 °F 73.9 °F 96% 30.02 in 2.0 mi SW 16.1 mph - 0.47 in Rain Heavy Rain
12:27 PM 75.0 °F 73.9 °F 96% 30.01 in 3.0 mi SW 12.7 mph - 0.49 in Rain Heavy Rain
12:53 PM 75.9 °F 73.9 °F 94% 30.00 in 10.0 mi SSW 8.1 mph - 0.51 in   Scattered Clouds
1:23 PM 77.0 °F 73.9 °F 90% 30.01 in 10.0 mi SW 10.4 mph - N/A   Mostly Cloudy
1:30 PM 77.0 °F 73.9 °F 90% 30.01 in 10.0 mi SSW 9.2 mph - N/A   Mostly Cloudy
1:53 PM 77.0 °F 73.9 °F 90% 30.01 in 8.0 mi SSW 5.8 mph - 0.01 in Rain Rain
2:53 PM 75.9 °F 73.9 °F 94% 30.01 in 10.0 mi South 5.8 mph - 0.03 in Rain Light Rain
3:13 PM 75.9 °F 73.9 °F 94% 30.01 in 9.0 mi South 6.9 mph - 0.02 in Rain Light Rain
3:29 PM 75.9 °F 73.9 °F 94% 30.00 in 9.0 mi Variable 3.5 mph - 0.03 in Rain Light Rain
3:42 PM 75.9 °F 73.9 °F 94% 30.00 in 10.0 mi SSE 4.6 mph - 0.04 in Rain Light Rain
3:53 PM 75.9 °F 73.9 °F 94% 30.00 in 10.0 mi South 5.8 mph - 0.04 in Rain Light Rain
4:18 PM 75.9 °F 73.9 °F 94% 30.01 in 10.0 mi South 6.9 mph - 0.01 in Rain Light Rain
4:53 PM 75.9 °F 73.0 °F 91% 30.01 in 10.0 mi SW 8.1 mph - 0.02 in Rain Light Rain
5:53 PM 73.9 °F 72.0 °F 93% 30.02 in 10.0 mi South 6.9 mph - 0.04 in Rain Light Rain
6:53 PM 73.9 °F 72.0 °F 93% 30.00 in 10.0 mi Variable 3.5 mph - 0.04 in Rain Light Rain
7:53 PM 73.9 °F 72.0 °F 93% 29.99 in 10.0 mi Variable 5.8 mph - 0.00 in   Clear
8:53 PM 75.0 °F 72.0 °F 90% 30.01 in 10.0 mi Variable 5.8 mph - 0.00 in   Partly Cloudy
9:53 PM 75.2 °F 73.4 °F 94% 30.01 in 10.0 mi South 6.9 mph - N/A   Clear
10:53 PM 75.9 °F 73.9 °F 94% 30.00 in 10.0 mi Calm Calm - N/A   Clear
11:53 PM 75.0 °F 73.0 °F 94% 30.00 in 10.0 mi Calm Calm - N/A   Clear